iso_date,epoch_date,Year,Hour,Min,DOY,POS_DOY,Lat,Lon,BP,Ts,Ta,has_bp,has_ts,has_ta,BuoyID,Buoy_Type,Buoy_Owner,Logistics,Hemisphere
2019-12-14T05:55:58Z,1576302958,2019,5,56,348.2472,348.2472,86.6092,118.5694,-999.00,18.0,-999.0,no,yes,no,300234068210310,SVP,PRIC,MOSAiC,North
2019-12-14T07:00:02Z,1576306803,2019,7,0,348.2917,348.2917,86.6172,118.364,-999.00,3.0,-999.0,no,yes,no,300234068210310,SVP,PRIC,MOSAiC,North
2019-12-14T07:59:57Z,1576310397,2019,8,0,348.3333,348.3333,86.611,118.5078,-999.00,-3.3,-999.0,no,yes,no,300234068210310,SVP,PRIC,MOSAiC,North
2019-12-14T09:00:00Z,1576314000,2019,9,0,348.375,348.375,86.6116,118.5084,-999.00,-9.8,-999.0,no,yes,no,300234068210310,SVP,PRIC,MOSAiC,North
2019-12-15T09:09:04Z,1576400944,2019,9,9,349.3813,349.3813,86.6192,118.0344,-999.00,-23.7,-999.0,no,yes,no,300234068210310,SVP,PRIC,MOSAiC,North
2019-12-15T10:00:02Z,1576404003,2019,10,0,349.4167,349.4167,86.6192,118.0122,-999.00,-19.2,-999.0,no,yes,no,300234068210310,SVP,PRIC,MOSAiC,North
2019-12-15T10:59:57Z,1576407597,2019,11,0,349.4583,349.4583,86.6264,117.7956,-999.00,-20.8,-999.0,no,yes,no,300234068210310,SVP,PRIC,MOSAiC,North
2020-04-06T13:26:58Z,1586179619,2020,13,27,97.5604,97.5604,84.531,14.3532,-999.00,-16.2,-999.0,no,yes,no,300234068210310,SVP,PRIC,MOSAiC,North
2020-04-06T13:59:57Z,1586181597,2020,14,0,97.5833,97.5833,84.5302,14.3694,-999.00,-17.1,-999.0,no,yes,no,300234068210310,SVP,PRIC,MOSAiC,North
2020-04-06T15:00:00Z,1586185200,2020,15,0,97.625,97.625,84.5284,14.3952,-999.00,-17.5,-999.0,no,yes,no,300234068210310,SVP,PRIC,MOSAiC,North
2020-04-06T16:00:02Z,1586188803,2020,16,0,97.6667,97.6667,84.5264,14.4162,-999.00,-17.6,-999.0,no,yes,no,300234068210310,SVP,PRIC,MOSAiC,North
2020-04-06T16:59:57Z,1586192397,2020,17,0,97.7083,97.7083,84.5244,14.4308,-999.00,-17.7,-999.0,no,yes,no,300234068210310,SVP,PRIC,MOSAiC,North
2020-04-06T18:00:00Z,1586196000,2020,18,0,97.75,97.75,84.522,14.4414,-999.00,-18.0,-999.0,no,yes,no,300234068210310,SVP,PRIC,MOSAiC,North
2020-04-06T19:00:02Z,1586199603,2020,19,0,97.7917,97.7917,84.5196,14.4484,-999.00,-18.6,-999.0,no,yes,no,300234068210310,SVP,PRIC,MOSAiC,North
2020-04-06T19:59:57Z,1586203197,2020,20,0,97.8333,97.8333,84.5174,14.4524,-999.00,-19.6,-999.0,no,yes,no,300234068210310,SVP,PRIC,MOSAiC,North
2020-04-06T21:00:00Z,1586206800,2020,21,0,97.875,97.875,84.515,14.4554,-999.00,-20.5,-999.0,no,yes,no,300234068210310,SVP,PRIC,MOSAiC,North
2020-04-06T22:00:02Z,1586210403,2020,22,0,97.9167,97.9167,84.5128,14.4582,-999.00,-20.9,-999.0,no,yes,no,300234068210310,SVP,PRIC,MOSAiC,North
2020-04-06T22:59:57Z,1586213997,2020,23,0,97.9583,97.9583,84.5108,14.464,-999.00,-21.2,-999.0,no,yes,no,300234068210310,SVP,PRIC,MOSAiC,North
2020-04-07T00:00:00Z,1586217600,2020,0,0,98.0,98.0,84.509,14.4738,-999.00,-21.6,-999.0,no,yes,no,300234068210310,SVP,PRIC,MOSAiC,North
2020-04-07T01:00:02Z,1586221203,2020,1,0,98.0417,98.0417,84.5076,14.4862,-999.00,-22.0,-999.0,no,yes,no,300234068210310,SVP,PRIC,MOSAiC,North
2020-04-07T01:59:57Z,1586224797,2020,2,0,98.0833,98.0833,84.5066,14.4992,-999.00,-22.6,-999.0,no,yes,no,300234068210310,SVP,PRIC,MOSAiC,North
2020-04-07T03:00:00Z,1586228400,2020,3,0,98.125,98.125,84.5058,14.5122,-999.00,-23.2,-999.0,no,yes,no,300234068210310,SVP,PRIC,MOSAiC,North
2020-04-07T04:00:02Z,1586232003,2020,4,0,98.1667,98.1667,84.5052,14.5238,-999.00,-23.7,-999.0,no,yes,no,300234068210310,SVP,PRIC,MOSAiC,North
2020-04-07T04:59:57Z,1586235597,2020,5,0,98.2083,98.2083,84.5046,14.531,-999.00,-23.8,-999.0,no,yes,no,300234068210310,SVP,PRIC,MOSAiC,North
2020-04-07T06:00:00Z,1586239200,2020,6,0,98.25,98.25,84.5038,14.5332,-999.00,-23.4,-999.0,no,yes,no,300234068210310,SVP,PRIC,MOSAiC,North
2020-04-07T07:00:02Z,1586242803,2020,7,0,98.2917,98.2917,84.503,14.5328,-999.00,-22.7,-999.0,no,yes,no,300234068210310,SVP,PRIC,MOSAiC,North
2020-04-07T07:59:57Z,1586246397,2020,8,0,98.3333,98.3333,84.502,14.5318,-999.00,-22.8,-999.0,no,yes,no,300234068210310,SVP,PRIC,MOSAiC,North
2020-04-07T09:00:00Z,1586250000,2020,9,0,98.375,98.375,84.501,14.5306,-999.00,-23.1,-999.0,no,yes,no,300234068210310,SVP,PRIC,MOSAiC,North
2020-04-07T10:00:02Z,1586253603,2020,10,0,98.4167,98.4167,84.5,14.5312,-999.00,-22.7,-999.0,no,yes,no,300234068210310,SVP,PRIC,MOSAiC,North
2020-04-07T10:59:57Z,1586257197,2020,11,0,98.4583,98.4583,84.4992,14.5336,-999.00,-22.7,-999.0,no,yes,no,300234068210310,SVP,PRIC,MOSAiC,North
2020-04-07T12:00:00Z,1586260800,2020,12,0,98.5,98.5,84.4986,14.5374,-999.00,-22.8,-999.0,no,yes,no,300234068210310,SVP,PRIC,MOSAiC,North
2020-04-07T13:00:02Z,1586264403,2020,13,0,98.5417,98.5417,84.4978,14.5414,-999.00,-21.9,-999.0,no,yes,no,300234068210310,SVP,PRIC,MOSAiC,North
2020-04-07T13:59:57Z,1586267997,2020,14,0,98.5833,98.5833,84.497,14.5444,-999.00,-21.1,-999.0,no,yes,no,300234068210310,SVP,PRIC,MOSAiC,North
2020-04-07T15:00:00Z,1586271600,2020,15,0,98.625,98.625,84.4966,14.547,-999.00,-22.8,-999.0,no,yes,no,300234068210310,SVP,PRIC,MOSAiC,North
2020-04-07T16:00:02Z,1586275203,2020,16,0,98.6667,98.6667,84.4962,14.548,-999.00,-24.1,-999.0,no,yes,no,300234068210310,SVP,PRIC,MOSAiC,North
2020-04-07T16:59:57Z,1586278797,2020,17,0,98.7083,98.7083,84.496,14.5482,-999.00,-24.6,-999.0,no,yes,no,300234068210310,SVP,PRIC,MOSAiC,North
2020-04-07T18:00:00Z,1586282400,2020,18,0,98.75,98.75,84.4954,14.5478,-999.00,-24.9,-999.0,no,yes,no,300234068210310,SVP,PRIC,MOSAiC,North
2020-04-07T19:00:02Z,1586286003,2020,19,0,98.7917,98.7917,84.4944,14.545,-999.00,-26.5,-999.0,no,yes,no,300234068210310,SVP,PRIC,MOSAiC,North
2020-04-07T19:59:57Z,1586289597,2020,20,0,98.8333,98.8333,84.493,14.5414,-999.00,-27.9,-999.0,no,yes,no,300234068210310,SVP,PRIC,MOSAiC,North
2020-04-07T21:00:00Z,1586293200,2020,21,0,98.875,98.875,84.4916,14.5386,-999.00,-28.7,-999.0,no,yes,no,300234068210310,SVP,PRIC,MOSAiC,North
2020-04-07T22:00:02Z,1586296803,2020,22,0,98.9167,98.9167,84.49,14.537,-999.00,-29.4,-999.0,no,yes,no,300234068210310,SVP,PRIC,MOSAiC,North
2020-04-07T22:59:57Z,1586300397,2020,23,0,98.9583,98.9583,84.4888,14.5388,-999.00,-29.8,-999.0,no,yes,no,300234068210310,SVP,PRIC,MOSAiC,North
2020-04-08T00:00:00Z,1586304000,2020,0,0,99.0,99.0,84.4874,14.544,-999.00,-30.0,-999.0,no,yes,no,300234068210310,SVP,PRIC,MOSAiC,North
2020-04-08T01:00:02Z,1586307603,2020,1,0,99.0417,99.0417,84.4864,14.5516,-999.00,-30.3,-999.0,no,yes,no,300234068210310,SVP,PRIC,MOSAiC,North
2020-04-08T01:59:57Z,1586311197,2020,2,0,99.0833,99.0833,84.4856,14.5612,-999.00,-30.4,-999.0,no,yes,no,300234068210310,SVP,PRIC,MOSAiC,North
2020-04-08T03:00:00Z,1586314800,2020,3,0,99.125,99.125,84.485,14.5724,-999.00,-30.3,-999.0,no,yes,no,300234068210310,SVP,PRIC,MOSAiC,North
2020-04-08T04:00:02Z,1586318403,2020,4,0,99.1667,99.1667,84.4846,14.5842,-999.00,-29.9,-999.0,no,yes,no,300234068210310,SVP,PRIC,MOSAiC,North
2020-04-08T04:59:57Z,1586321997,2020,5,0,99.2083,99.2083,84.4844,14.596,-999.00,-29.0,-999.0,no,yes,no,300234068210310,SVP,PRIC,MOSAiC,North
2020-04-08T06:00:00Z,1586325600,2020,6,0,99.25,99.25,84.4838,14.6082,-999.00,-28.1,-999.0,no,yes,no,300234068210310,SVP,PRIC,MOSAiC,North
2020-04-08T07:00:02Z,1586329203,2020,7,0,99.2917,99.2917,84.4832,14.6188,-999.00,-27.2,-999.0,no,yes,no,300234068210310,SVP,PRIC,MOSAiC,North
2020-04-08T07:59:57Z,1586332797,2020,8,0,99.3333,99.3333,84.4824,14.6302,-999.00,-26.5,-999.0,no,yes,no,300234068210310,SVP,PRIC,MOSAiC,North
2020-04-08T09:00:00Z,1586336400,2020,9,0,99.375,99.375,84.4814,14.6434,-999.00,-25.6,-999.0,no,yes,no,300234068210310,SVP,PRIC,MOSAiC,North
2020-04-08T10:00:02Z,1586340003,2020,10,0,99.4167,99.4167,84.4804,14.657,-999.00,-24.2,-999.0,no,yes,no,300234068210310,SVP,PRIC,MOSAiC,North
2020-04-08T10:59:57Z,1586343597,2020,11,0,99.4583,99.4583,84.4794,14.6738,-999.00,-22.5,-999.0,no,yes,no,300234068210310,SVP,PRIC,MOSAiC,North
2020-04-08T12:00:00Z,1586347200,2020,12,0,99.5,99.5,84.4782,14.6936,-999.00,-21.8,-999.0,no,yes,no,300234068210310,SVP,PRIC,MOSAiC,North
2020-04-08T13:00:02Z,1586350803,2020,13,0,99.5417,99.5417,84.4768,14.7152,-999.00,-20.3,-999.0,no,yes,no,300234068210310,SVP,PRIC,MOSAiC,North
2020-04-08T13:59:57Z,1586354397,2020,14,0,99.5833,99.5833,84.4754,14.7374,-999.00,-19.0,-999.0,no,yes,no,300234068210310,SVP,PRIC,MOSAiC,North
2020-04-08T15:00:00Z,1586358000,2020,15,0,99.625,99.625,84.474,14.758,-999.00,-19.0,-999.0,no,yes,no,300234068210310,SVP,PRIC,MOSAiC,North
2020-04-08T16:00:02Z,1586361603,2020,16,0,99.6667,99.6667,84.4726,14.7772,-999.00,-19.1,-999.0,no,yes,no,300234068210310,SVP,PRIC,MOSAiC,North
2020-04-08T16:59:57Z,1586365197,2020,17,0,99.7083,99.7083,84.471,14.7938,-999.00,-18.6,-999.0,no,yes,no,300234068210310,SVP,PRIC,MOSAiC,North
2020-04-08T18:00:00Z,1586368800,2020,18,0,99.75,99.75,84.4694,14.8086,-999.00,-19.7,-999.0,no,yes,no,300234068210310,SVP,PRIC,MOSAiC,North
2020-04-08T19:00:02Z,1586372403,2020,19,0,99.7917,99.7917,84.4674,14.8194,-999.00,-19.4,-999.0,no,yes,no,300234068210310,SVP,PRIC,MOSAiC,North
2020-04-08T19:59:57Z,1586375997,2020,20,0,99.8333,99.8333,84.4652,14.827,-999.00,-20.6,-999.0,no,yes,no,300234068210310,SVP,PRIC,MOSAiC,North
2020-04-08T21:00:00Z,1586379600,2020,21,0,99.875,99.875,84.463,14.832,-999.00,-21.6,-999.0,no,yes,no,300234068210310,SVP,PRIC,MOSAiC,North
2020-04-08T22:00:02Z,1586383203,2020,22,0,99.9167,99.9167,84.4604,14.835,-999.00,-22.2,-999.0,no,yes,no,300234068210310,SVP,PRIC,MOSAiC,North
2020-04-08T22:59:57Z,1586386797,2020,23,0,99.9583,99.9583,84.458,14.8378,-999.00,-23.0,-999.0,no,yes,no,300234068210310,SVP,PRIC,MOSAiC,North
2020-04-09T00:00:00Z,1586390400,2020,0,0,100.0,100.0,84.4556,14.8404,-999.00,-23.5,-999.0,no,yes,no,300234068210310,SVP,PRIC,MOSAiC,North
2020-04-09T01:00:02Z,1586394003,2020,1,0,100.0417,100.0417,84.4536,14.844,-999.00,-24.3,-999.0,no,yes,no,300234068210310,SVP,PRIC,MOSAiC,North
2020-04-09T01:59:57Z,1586397597,2020,2,0,100.0833,100.0833,84.4516,14.8478,-999.00,-24.6,-999.0,no,yes,no,300234068210310,SVP,PRIC,MOSAiC,North
2020-04-09T03:00:00Z,1586401200,2020,3,0,100.125,100.125,84.4496,14.851,-999.00,-23.7,-999.0,no,yes,no,300234068210310,SVP,PRIC,MOSAiC,North
2020-04-09T04:00:02Z,1586404803,2020,4,0,100.1667,100.1667,84.4478,14.8542,-999.00,-22.6,-999.0,no,yes,no,300234068210310,SVP,PRIC,MOSAiC,North
2020-04-09T04:59:57Z,1586408397,2020,5,0,100.2083,100.2083,84.4458,14.8554,-999.00,-21.6,-999.0,no,yes,no,300234068210310,SVP,PRIC,MOSAiC,North
2020-04-09T06:00:00Z,1586412000,2020,6,0,100.25,100.25,84.444,14.8542,-999.00,-21.0,-999.0,no,yes,no,300234068210310,SVP,PRIC,MOSAiC,North
2020-04-09T07:00:02Z,1586415603,2020,7,0,100.2917,100.2917,84.4418,14.849,-999.00,-21.2,-999.0,no,yes,no,300234068210310,SVP,PRIC,MOSAiC,North
2020-04-09T07:59:57Z,1586419197,2020,8,0,100.3333,100.3333,84.4392,14.8404,-999.00,-20.9,-999.0,no,yes,no,300234068210310,SVP,PRIC,MOSAiC,North
2020-04-09T09:00:00Z,1586422800,2020,9,0,100.375,100.375,84.4364,14.8292,-999.00,-20.7,-999.0,no,yes,no,300234068210310,SVP,PRIC,MOSAiC,North
2020-04-09T10:00:02Z,1586426403,2020,10,0,100.4167,100.4167,84.4336,14.8164,-999.00,-20.3,-999.0,no,yes,no,300234068210310,SVP,PRIC,MOSAiC,North
2020-04-09T10:59:57Z,1586429997,2020,11,0,100.4583,100.4583,84.4306,14.8028,-999.00,-19.9,-999.0,no,yes,no,300234068210310,SVP,PRIC,MOSAiC,North
2020-04-09T12:00:00Z,1586433600,2020,12,0,100.5,100.5,84.4278,14.7906,-999.00,-19.6,-999.0,no,yes,no,300234068210310,SVP,PRIC,MOSAiC,North
2020-04-09T13:00:02Z,1586437203,2020,13,0,100.5417,100.5417,84.4254,14.781,-999.00,-19.3,-999.0,no,yes,no,300234068210310,SVP,PRIC,MOSAiC,North
2020-04-09T13:59:57Z,1586440797,2020,14,0,100.5833,100.5833,84.4232,14.7732,-999.00,-19.1,-999.0,no,yes,no,300234068210310,SVP,PRIC,MOSAiC,North
2020-04-09T16:07:58Z,1586448478,2020,16,8,100.6722,100.6722,84.4202,14.7636,-999.00,-18.8,-999.0,no,yes,no,300234068210310,SVP,PRIC,MOSAiC,North
2020-04-09T16:59:57Z,1586451597,2020,17,0,100.7083,100.7083,84.4194,14.76,-999.00,-18.9,-999.0,no,yes,no,300234068210310,SVP,PRIC,MOSAiC,North
2020-04-09T18:00:00Z,1586455200,2020,18,0,100.75,100.75,84.4178,14.7536,-999.00,-19.0,-999.0,no,yes,no,300234068210310,SVP,PRIC,MOSAiC,North
2020-04-09T19:00:02Z,1586458803,2020,19,0,100.7917,100.7917,84.4158,14.745,-999.00,-19.2,-999.0,no,yes,no,300234068210310,SVP,PRIC,MOSAiC,North
2020-04-09T19:59:57Z,1586462397,2020,20,0,100.8333,100.8333,84.4134,14.7328,-999.00,-19.4,-999.0,no,yes,no,300234068210310,SVP,PRIC,MOSAiC,North
2020-04-09T21:00:00Z,1586466000,2020,21,0,100.875,100.875,84.4106,14.7182,-999.00,-19.5,-999.0,no,yes,no,300234068210310,SVP,PRIC,MOSAiC,North
2020-04-09T22:00:02Z,1586469603,2020,22,0,100.9167,100.9167,84.4076,14.7014,-999.00,-20.0,-999.0,no,yes,no,300234068210310,SVP,PRIC,MOSAiC,North
2020-04-09T22:59:57Z,1586473197,2020,23,0,100.9583,100.9583,84.4046,14.685,-999.00,-20.7,-999.0,no,yes,no,300234068210310,SVP,PRIC,MOSAiC,North
2020-04-10T00:00:00Z,1586476800,2020,0,0,101.0,101.0,84.4016,14.6706,-999.00,-20.8,-999.0,no,yes,no,300234068210310,SVP,PRIC,MOSAiC,North
2020-04-10T01:00:02Z,1586480403,2020,1,0,101.0417,101.0417,84.3992,14.66,-999.00,-22.0,-999.0,no,yes,no,300234068210310,SVP,PRIC,MOSAiC,North
2020-04-10T01:59:57Z,1586483997,2020,2,0,101.0833,101.0833,84.3976,14.6532,-999.00,-22.3,-999.0,no,yes,no,300234068210310,SVP,PRIC,MOSAiC,North
2020-04-10T03:00:00Z,1586487600,2020,3,0,101.125,101.125,84.3966,14.6504,-999.00,-22.4,-999.0,no,yes,no,300234068210310,SVP,PRIC,MOSAiC,North
2020-04-10T04:00:02Z,1586491203,2020,4,0,101.1667,101.1667,84.396,14.65,-999.00,-22.3,-999.0,no,yes,no,300234068210310,SVP,PRIC,MOSAiC,North
2020-04-10T04:59:57Z,1586494797,2020,5,0,101.2083,101.2083,84.3954,14.6516,-999.00,-22.3,-999.0,no,yes,no,300234068210310,SVP,PRIC,MOSAiC,North
2020-04-10T06:00:00Z,1586498400,2020,6,0,101.25,101.25,84.3942,14.6524,-999.00,-22.0,-999.0,no,yes,no,300234068210310,SVP,PRIC,MOSAiC,North
2020-04-10T07:00:02Z,1586502003,2020,7,0,101.2917,101.2917,84.3928,14.6518,-999.00,-21.8,-999.0,no,yes,no,300234068210310,SVP,PRIC,MOSAiC,North
2020-04-10T07:59:57Z,1586505597,2020,8,0,101.3333,101.3333,84.3906,14.649,-999.00,-21.7,-999.0,no,yes,no,300234068210310,SVP,PRIC,MOSAiC,North
2020-04-10T09:00:00Z,1586509200,2020,9,0,101.375,101.375,84.3878,14.6438,-999.00,-21.5,-999.0,no,yes,no,300234068210310,SVP,PRIC,MOSAiC,North
2020-04-10T10:00:02Z,1586512803,2020,10,0,101.4167,101.4167,84.3848,14.6364,-999.00,-21.2,-999.0,no,yes,no,300234068210310,SVP,PRIC,MOSAiC,North
2020-04-10T10:59:57Z,1586516397,2020,11,0,101.4583,101.4583,84.3816,14.6286,-999.00,-20.8,-999.0,no,yes,no,300234068210310,SVP,PRIC,MOSAiC,North
2020-04-10T12:00:00Z,1586520000,2020,12,0,101.5,101.5,84.3786,14.6218,-999.00,-20.4,-999.0,no,yes,no,300234068210310,SVP,PRIC,MOSAiC,North
2020-04-10T13:00:02Z,1586523603,2020,13,0,101.5417,101.5417,84.3758,14.6182,-999.00,-19.7,-999.0,no,yes,no,300234068210310,SVP,PRIC,MOSAiC,North
2020-04-10T13:59:57Z,1586527197,2020,14,0,101.5833,101.5833,84.3732,14.6182,-999.00,-19.6,-999.0,no,yes,no,300234068210310,SVP,PRIC,MOSAiC,North
2020-04-10T15:00:00Z,1586530800,2020,15,0,101.625,101.625,84.371,14.6226,-999.00,-20.1,-999.0,no,yes,no,300234068210310,SVP,PRIC,MOSAiC,North
2020-04-10T16:00:02Z,1586534403,2020,16,0,101.6667,101.6667,84.369,14.6298,-999.00,-20.5,-999.0,no,yes,no,300234068210310,SVP,PRIC,MOSAiC,North
2020-04-10T16:59:57Z,1586537997,2020,17,0,101.7083,101.7083,84.3674,14.6384,-999.00,-20.9,-999.0,no,yes,no,300234068210310,SVP,PRIC,MOSAiC,North
2020-04-10T18:00:00Z,1586541600,2020,18,0,101.75,101.75,84.3654,14.6472,-999.00,-21.3,-999.0,no,yes,no,300234068210310,SVP,PRIC,MOSAiC,North
2020-04-10T19:00:02Z,1586545203,2020,19,0,101.7917,101.7917,84.3632,14.656,-999.00,-21.7,-999.0,no,yes,no,300234068210310,SVP,PRIC,MOSAiC,North
2020-04-10T19:59:57Z,1586548797,2020,20,0,101.8333,101.8333,84.3606,14.6636,-999.00,-22.3,-999.0,no,yes,no,300234068210310,SVP,PRIC,MOSAiC,North
2020-04-10T21:00:00Z,1586552400,2020,21,0,101.875,101.875,84.3578,14.6682,-999.00,-23.1,-999.0,no,yes,no,300234068210310,SVP,PRIC,MOSAiC,North
2020-04-10T22:00:02Z,1586556003,2020,22,0,101.9167,101.9167,84.355,14.671,-999.00,-23.7,-999.0,no,yes,no,300234068210310,SVP,PRIC,MOSAiC,North
2020-04-10T22:59:57Z,1586559597,2020,23,0,101.9583,101.9583,84.3526,14.6718,-999.00,-24.3,-999.0,no,yes,no,300234068210310,SVP,PRIC,MOSAiC,North
2020-04-11T00:00:00Z,1586563200,2020,0,0,102.0,102.0,84.3502,14.6738,-999.00,-24.5,-999.0,no,yes,no,300234068210310,SVP,PRIC,MOSAiC,North
2020-04-11T01:00:02Z,1586566803,2020,1,0,102.0417,102.0417,84.3478,14.6782,-999.00,-24.9,-999.0,no,yes,no,300234068210310,SVP,PRIC,MOSAiC,North
2020-04-11T01:59:57Z,1586570397,2020,2,0,102.0833,102.0833,84.3454,14.6858,-999.00,-25.4,-999.0,no,yes,no,300234068210310,SVP,PRIC,MOSAiC,North
2020-04-11T03:00:00Z,1586574000,2020,3,0,102.125,102.125,84.3428,14.697,-999.00,-25.7,-999.0,no,yes,no,300234068210310,SVP,PRIC,MOSAiC,North
2020-04-11T04:00:02Z,1586577603,2020,4,0,102.1667,102.1667,84.3406,14.7092,-999.00,-26.0,-999.0,no,yes,no,300234068210310,SVP,PRIC,MOSAiC,North
2020-04-11T04:59:57Z,1586581197,2020,5,0,102.2083,102.2083,84.3382,14.7222,-999.00,-25.8,-999.0,no,yes,no,300234068210310,SVP,PRIC,MOSAiC,North
2020-04-11T06:00:00Z,1586584800,2020,6,0,102.25,102.25,84.336,14.734,-999.00,-25.3,-999.0,no,yes,no,300234068210310,SVP,PRIC,MOSAiC,North
2020-04-11T07:00:02Z,1586588403,2020,7,0,102.2917,102.2917,84.3338,14.7432,-999.00,-24.9,-999.0,no,yes,no,300234068210310,SVP,PRIC,MOSAiC,North
2020-04-11T07:59:57Z,1586591997,2020,8,0,102.3333,102.3333,84.3316,14.7466,-999.00,-24.8,-999.0,no,yes,no,300234068210310,SVP,PRIC,MOSAiC,North
2020-04-11T10:07:58Z,1586599678,2020,10,8,102.4222,102.4222,84.327,14.7474,-999.00,-24.6,-999.0,no,yes,no,300234068210310,SVP,PRIC,MOSAiC,North
2020-04-11T10:59:57Z,1586602797,2020,11,0,102.4583,102.4583,84.3248,14.745,-999.00,-24.1,-999.0,no,yes,no,300234068210310,SVP,PRIC,MOSAiC,North
2020-04-11T12:00:00Z,1586606400,2020,12,0,102.5,102.5,84.3224,14.7396,-999.00,-23.3,-999.0,no,yes,no,300234068210310,SVP,PRIC,MOSAiC,North
2020-04-11T13:00:02Z,1586610003,2020,13,0,102.5417,102.5417,84.3198,14.7344,-999.00,-22.8,-999.0,no,yes,no,300234068210310,SVP,PRIC,MOSAiC,North
2020-04-11T15:08:03Z,1586617684,2020,15,8,102.6306,102.6306,84.3144,14.7308,-999.00,-22.2,-999.0,no,yes,no,300234068210310,SVP,PRIC,MOSAiC,North
2020-04-11T16:00:02Z,1586620803,2020,16,0,102.6667,102.6667,84.3122,14.7302,-999.00,-22.0,-999.0,no,yes,no,300234068210310,SVP,PRIC,MOSAiC,North
2020-04-11T16:59:57Z,1586624397,2020,17,0,102.7083,102.7083,84.3098,14.7298,-999.00,-21.8,-999.0,no,yes,no,300234068210310,SVP,PRIC,MOSAiC,North
2020-04-11T18:00:00Z,1586628000,2020,18,0,102.75,102.75,84.3078,14.7292,-999.00,-22.0,-999.0,no,yes,no,300234068210310,SVP,PRIC,MOSAiC,North
2020-04-11T19:00:02Z,1586631603,2020,19,0,102.7917,102.7917,84.306,14.7274,-999.00,-22.6,-999.0,no,yes,no,300234068210310,SVP,PRIC,MOSAiC,North
2020-04-11T19:59:57Z,1586635197,2020,20,0,102.8333,102.8333,84.3044,14.7242,-999.00,-23.4,-999.0,no,yes,no,300234068210310,SVP,PRIC,MOSAiC,North
2020-04-11T21:00:00Z,1586638800,2020,21,0,102.875,102.875,84.3026,14.7202,-999.00,-24.1,-999.0,no,yes,no,300234068210310,SVP,PRIC,MOSAiC,North
2020-04-11T22:00:02Z,1586642403,2020,22,0,102.9167,102.9167,84.3006,14.7152,-999.00,-24.8,-999.0,no,yes,no,300234068210310,SVP,PRIC,MOSAiC,North
2020-04-11T22:59:57Z,1586645997,2020,23,0,102.9583,102.9583,84.2986,14.7096,-999.00,-25.3,-999.0,no,yes,no,300234068210310,SVP,PRIC,MOSAiC,North
2020-04-12T00:00:00Z,1586649600,2020,0,0,103.0,103.0,84.2968,14.705,-999.00,-25.6,-999.0,no,yes,no,300234068210310,SVP,PRIC,MOSAiC,North
2020-04-12T01:00:02Z,1586653203,2020,1,0,103.0417,103.0417,84.2952,14.7046,-999.00,-26.0,-999.0,no,yes,no,300234068210310,SVP,PRIC,MOSAiC,North
2020-04-12T01:59:57Z,1586656797,2020,2,0,103.0833,103.0833,84.2942,14.7056,-999.00,-26.5,-999.0,no,yes,no,300234068210310,SVP,PRIC,MOSAiC,North
2020-04-12T03:00:00Z,1586660400,2020,3,0,103.125,103.125,84.2936,14.7084,-999.00,-26.6,-999.0,no,yes,no,300234068210310,SVP,PRIC,MOSAiC,North
2020-04-12T04:00:02Z,1586664003,2020,4,0,103.1667,103.1667,84.2934,14.7124,-999.00,-26.6,-999.0,no,yes,no,300234068210310,SVP,PRIC,MOSAiC,North
2020-04-12T04:59:57Z,1586667597,2020,5,0,103.2083,103.2083,84.2934,14.7182,-999.00,-26.4,-999.0,no,yes,no,300234068210310,SVP,PRIC,MOSAiC,North
2020-04-12T06:00:00Z,1586671200,2020,6,0,103.25,103.25,84.2936,14.7234,-999.00,-25.8,-999.0,no,yes,no,300234068210310,SVP,PRIC,MOSAiC,North
2020-04-12T07:00:02Z,1586674803,2020,7,0,103.2917,103.2917,84.2936,14.7278,-999.00,-25.2,-999.0,no,yes,no,300234068210310,SVP,PRIC,MOSAiC,North
2020-04-12T07:59:57Z,1586678397,2020,8,0,103.3333,103.3333,84.2936,14.7302,-999.00,-25.0,-999.0,no,yes,no,300234068210310,SVP,PRIC,MOSAiC,North
2020-04-12T09:00:00Z,1586682000,2020,9,0,103.375,103.375,84.2934,14.7322,-999.00,-24.9,-999.0,no,yes,no,300234068210310,SVP,PRIC,MOSAiC,North
2020-04-12T10:00:02Z,1586685603,2020,10,0,103.4167,103.4167,84.2926,14.7356,-999.00,-24.5,-999.0,no,yes,no,300234068210310,SVP,PRIC,MOSAiC,North
2020-04-12T10:59:57Z,1586689197,2020,11,0,103.4583,103.4583,84.2918,14.7402,-999.00,-23.5,-999.0,no,yes,no,300234068210310,SVP,PRIC,MOSAiC,North
2020-04-12T12:00:00Z,1586692800,2020,12,0,103.5,103.5,84.291,14.7458,-999.00,-22.6,-999.0,no,yes,no,300234068210310,SVP,PRIC,MOSAiC,North
2020-04-12T13:00:02Z,1586696403,2020,13,0,103.5417,103.5417,84.2902,14.752,-999.00,-22.3,-999.0,no,yes,no,300234068210310,SVP,PRIC,MOSAiC,North
2020-04-12T13:59:57Z,1586699997,2020,14,0,103.5833,103.5833,84.2896,14.7594,-999.00,-22.4,-999.0,no,yes,no,300234068210310,SVP,PRIC,MOSAiC,North
2020-04-12T15:00:00Z,1586703600,2020,15,0,103.625,103.625,84.2888,14.7678,-999.00,-22.5,-999.0,no,yes,no,300234068210310,SVP,PRIC,MOSAiC,North
2020-04-12T16:00:02Z,1586707203,2020,16,0,103.6667,103.6667,84.2886,14.7766,-999.00,-22.5,-999.0,no,yes,no,300234068210310,SVP,PRIC,MOSAiC,North
2020-04-12T16:59:57Z,1586710797,2020,17,0,103.7083,103.7083,84.2886,14.7836,-999.00,-22.8,-999.0,no,yes,no,300234068210310,SVP,PRIC,MOSAiC,North
2020-04-12T18:00:00Z,1586714400,2020,18,0,103.75,103.75,84.2886,14.7896,-999.00,-23.1,-999.0,no,yes,no,300234068210310,SVP,PRIC,MOSAiC,North
2020-04-12T19:00:02Z,1586718003,2020,19,0,103.7917,103.7917,84.2888,14.7952,-999.00,-23.6,-999.0,no,yes,no,300234068210310,SVP,PRIC,MOSAiC,North
2020-04-12T19:59:57Z,1586721597,2020,20,0,103.8333,103.8333,84.2888,14.8002,-999.00,-24.1,-999.0,no,yes,no,300234068210310,SVP,PRIC,MOSAiC,North
2020-04-12T21:00:00Z,1586725200,2020,21,0,103.875,103.875,84.2888,14.8036,-999.00,-24.6,-999.0,no,yes,no,300234068210310,SVP,PRIC,MOSAiC,North
2020-04-12T22:00:02Z,1586728803,2020,22,0,103.9167,103.9167,84.289,14.807,-999.00,-25.1,-999.0,no,yes,no,300234068210310,SVP,PRIC,MOSAiC,North
2020-04-12T22:59:57Z,1586732397,2020,23,0,103.9583,103.9583,84.289,14.8106,-999.00,-25.6,-999.0,no,yes,no,300234068210310,SVP,PRIC,MOSAiC,North
2020-04-13T00:00:00Z,1586736000,2020,0,0,104.0,104.0,84.289,14.8166,-999.00,-26.2,-999.0,no,yes,no,300234068210310,SVP,PRIC,MOSAiC,North
2020-04-13T01:00:02Z,1586739603,2020,1,0,104.0417,104.0417,84.289,14.8244,-999.00,-26.7,-999.0,no,yes,no,300234068210310,SVP,PRIC,MOSAiC,North
2020-04-13T04:07:58Z,1586750878,2020,4,8,104.1722,104.1722,84.2896,14.8578,-999.00,-27.5,-999.0,no,yes,no,300234068210310,SVP,PRIC,MOSAiC,North
2020-04-13T04:59:57Z,1586753997,2020,5,0,104.2083,104.2083,84.2898,14.87,-999.00,-27.3,-999.0,no,yes,no,300234068210310,SVP,PRIC,MOSAiC,North
2020-04-13T06:00:00Z,1586757600,2020,6,0,104.25,104.25,84.29,14.8838,-999.00,-27.0,-999.0,no,yes,no,300234068210310,SVP,PRIC,MOSAiC,North
2020-04-13T07:00:02Z,1586761203,2020,7,0,104.2917,104.2917,84.2906,14.8984,-999.00,-26.5,-999.0,no,yes,no,300234068210310,SVP,PRIC,MOSAiC,North
2020-04-13T07:59:57Z,1586764797,2020,8,0,104.3333,104.3333,84.291,14.9126,-999.00,-26.1,-999.0,no,yes,no,300234068210310,SVP,PRIC,MOSAiC,North
2020-04-13T09:00:00Z,1586768400,2020,9,0,104.375,104.375,84.2916,14.9266,-999.00,-26.0,-999.0,no,yes,no,300234068210310,SVP,PRIC,MOSAiC,North